Weather History for Laramie, WY

Change the Weather History Date:

Monday, December 10, 2012

  Actual Average Record
Temperature  
Mean Temperature 16 °F 21 °F  
Max Temperature 25 °F 32 °F 58 °F (1990)
Min Temperature 6 °F 10 °F -32 °F (1972)
Degree Days  
Heating Degree Days 49 44  
Month to date heating degree days 351 432  
Since 1 July heating degree days 2218 2744  
Cooling Degree Days 0 0  
Month to date cooling degree days 0 0  
Year to date cooling degree days 211 67  
Moisture  
Dew Point 8 °F    
Average Humidity 67    
Maximum Humidity 83    
Minimum Humidity 50    
Precipitation  
Precipitation T in 0.01 in 0.17 in (1949)
Month to date precipitation T 0.12  
Year to date precipitation 6.06 10.72  
Sea Level Pressure  
Sea Level Pressure 29.96 in    
Wind  
Wind Speed 20 mph (WNW)    
Max Wind Speed 36 mph    
Max Gust Speed 47 mph    
Visibility 9 miles    
Events Snow    
T = Trace of Precipitation, MM = Missing Value Source: NWS Daily Summary

Daily Weather History Graph

Daily Weather History Graph

Search for Another Location

Airport:

Trip Planner

Search our weather history database for the weather conditions in past years. The results will help you decide how hot, cold, wet, or windy it might be!

Date:

Astronomy

Dec. 10, 2012 Rise Set
Actual Time 7:18 AM MST 4:33 PM MST
Civil Twilight 6:46 AM MST 5:04 PM MST
Nautical Twilight 6:12 AM MST 5:39 PM MST
Astronomical Twilight 5:38 AM MST 6:12 PM MST
Moon 4:03 AM MST (12/10) 2:25 PM MST (12/10)
Length of Visible Light 10h 17m
Length of Day
9h 15m
Waning Crescent, 10% of the Moon is Illuminated
Dec 10
Waning Crescent
Dec 13
New
Dec 19
First Quarter
Dec 28
Full
Jan 4
Last Quarter

Hourly Weather History & Observations

Time (MST) Temp. Windchill Dew Point Humidity Pressure Visibility Wind Dir Wind Speed Gust Speed Precip Events Conditions
12:53 AM 12.9 °F -6.5 °F 1.0 °F 59% 30.07 in 10.0 mi WSW 24.2 mph 33.4 mph N/A   Overcast
1:53 AM 12.0 °F -8.8 °F 1.9 °F 64% 30.06 in 10.0 mi WSW 27.6 mph 32.2 mph N/A   Overcast
2:53 AM 12.9 °F -7.6 °F 1.9 °F 62% 30.05 in 10.0 mi WSW 27.6 mph 34.5 mph N/A   Overcast
3:53 AM 14.0 °F -3.9 °F 1.9 °F 59% 30.04 in 10.0 mi West 20.7 mph 25.3 mph N/A   Overcast
4:53 AM 12.9 °F -8.3 °F 1.9 °F 62% 30.02 in 10.0 mi SW 29.9 mph 41.4 mph N/A   Overcast
6:53 AM 14.0 °F -0.2 °F 3.0 °F 62% 30.08 in 10.0 mi WNW 12.7 mph 21.9 mph N/A   Overcast
7:53 AM 15.1 °F -0.6 °F 3.9 °F 61% 30.07 in 10.0 mi WSW 16.1 mph 25.3 mph N/A   Overcast
8:53 AM 17.1 °F 0.6 °F 5.0 °F 59% 30.06 in 10.0 mi WSW 19.6 mph - N/A   Overcast
9:53 AM 19.0 °F 0.3 °F 6.1 °F 57% 30.02 in 10.0 mi West 28.8 mph 35.7 mph N/A   Mostly Cloudy
10:53 AM 21.9 °F 4.2 °F 8.1 °F 55% 29.97 in 10.0 mi West 28.8 mph - N/A   Clear
11:53 AM 25.0 °F 8.6 °F 8.1 °F 49% 29.91 in 10.0 mi West 27.6 mph 33.4 mph N/A   Partly Cloudy
12:53 PM 24.1 °F 8.3 °F 8.1 °F 51% 29.89 in 10.0 mi West 24.2 mph 33.4 mph N/A   Mostly Cloudy
1:53 PM 23.0 °F 6.6 °F 8.1 °F 53% 29.89 in 10.0 mi West 25.3 mph 33.4 mph N/A   Mostly Cloudy
2:53 PM 23.0 °F 7.6 °F 9.0 °F 55% 29.89 in 10.0 mi WNW 21.9 mph 27.6 mph N/A   Partly Cloudy
3:53 PM 23.0 °F 8.3 °F 8.1 °F 53% 29.90 in 10.0 mi West 19.6 mph 29.9 mph N/A   Mostly Cloudy
4:53 PM 19.9 °F 5.7 °F 9.0 °F 62% 29.92 in 10.0 mi WNW 16.1 mph - N/A   Mostly Cloudy
5:53 PM 21.0 °F 5.4 °F 12.9 °F 71% 29.94 in 8.0 mi NW 20.7 mph 25.3 mph 0.00 in Snow Light Snow
6:34 PM 19.4 °F 7.2 °F 15.8 °F 86% 29.82 in 2.5 mi NNW 11.5 mph - 0.00 in Snow Light Snow
6:49 PM 17.6 °F 2.7 °F 15.8 °F 93% 29.82 in 2.5 mi NNW 16.1 mph 23.0 mph 0.00 in Snow Light Snow
6:53 PM 18.0 °F 3.6 °F 14.0 °F 84% 29.97 in 6.0 mi NNW 15.0 mph 23.0 mph 0.00 in Snow Light Snow
7:02 PM 17.6 °F 3.7 °F 14.0 °F 86% 29.82 in 10.0 mi NNW 13.8 mph - 0.00 in   Overcast
7:53 PM 16.0 °F 1.7 °F 12.9 °F 88% 30.00 in 6.0 mi NW 13.8 mph - 0.00 in Snow Light Snow
8:01 PM 15.8 °F 2.1 °F 12.2 °F 86% 29.85 in 5.0 mi NW 12.7 mph - 0.00 in Snow Light Snow
8:16 PM 15.8 °F 2.1 °F 12.2 °F 86% 29.85 in 10.0 mi NW 12.7 mph - 0.00 in   Mostly Cloudy
8:53 PM 16.0 °F 1.1 °F 12.9 °F 88% 30.01 in 9.0 mi NW 15.0 mph - 0.00 in Snow Light Snow
9:53 PM 12.9 °F -2.2 °F 9.0 °F 84% 30.02 in 10.0 mi NW 13.8 mph - 0.00 in   Partly Cloudy
10:53 PM 10.0 °F -2.9 °F 6.1 °F 84% 30.04 in 10.0 mi West 9.2 mph - N/A   Scattered Clouds
11:53 PM 14.0 °F 1.2 °F 7.0 °F 74% 30.00 in 10.0 mi NW 10.4 mph - N/A   Overcast